CW4778 Auckland NZ current weather conditions

sailwx.info

Wind from 333 at 5 knots gusting 7

Air temperature 13.3° C
Dewpoint 11.0° C

Last reported at 2015-Jul-31 22:48 UTC.
Time now 2015-Jul-31 23:31 UTC

Location: S 36°52' E 174°44'.
View on Google Maps.

See reports from other nearby stations

  
Tides and Currents Weather Stations Pressure Air Temp Water Temp Dewpoint Dewpoint Depression Visibility Wind Speed Wind Dir Waves Ship Positions
date/time (UTC)wind fromknots sea level pressurealtimeterstation pressurevisibilityair tempwater tempwave heightnotes
2015-Jul-31 22:48 333 5 gusting 7 13.3
2015-Jul-31 22:38 344 5 gusting 10 13.3
2015-Jul-31 22:28 338 6 gusting 10 12.8
2015-Jul-31 22:18 315 5 gusting 10 13.3
2015-Jul-31 22:08 321 6 gusting 8 13.3
2015-Jul-31 21:58 338 5 gusting 8 13.9
2015-Jul-31 21:48 330 4 gusting 6 14.4
2015-Jul-31 21:28 352 2 gusting 6 12.8
2015-Jul-31 21:18 013 1 gusting 4 11.7
2015-Jul-31 21:08 011 10.0
2015-Jul-31 20:58 270 9.4
2015-Jul-31 20:48 264 9.4
2015-Jul-31 20:38 264 8.9
2015-Jul-31 20:28 267 0 gusting 1 8.9
2015-Jul-31 20:18 268 0 gusting 5 8.3
2015-Jul-31 19:58 299 0 gusting 2 7.8
2015-Jul-31 19:48 299 7.8
2015-Jul-31 19:38 312 0 gusting 2 7.8
2015-Jul-31 19:28 311 7.8
2015-Jul-31 19:18 332 7.8
2015-Jul-31 19:08 301 7.8
2015-Jul-31 18:58 305 0 gusting 4 7.8
2015-Jul-31 18:48 301 7.8
2015-Jul-31 18:38 302 0 gusting 1 7.8
2015-Jul-31 18:28 304 7.2
2015-Jul-31 18:18 303 7.8
2015-Jul-31 18:08 300 7.2
2015-Jul-31 17:38 301 6.7
2015-Jul-31 17:28 300 6.7
2015-Jul-31 17:18 299 6.7
2015-Jul-31 17:08 302 6.7
2015-Jul-31 16:58 303 7.2
2015-Jul-31 16:48 308 6.7
2015-Jul-31 16:38 308 1 gusting 4 6.1
2015-Jul-31 16:28 299 6.1
2015-Jul-31 16:18 300 6.7
2015-Jul-31 16:08 302 6.7
2015-Jul-31 15:48 303 6.1
2015-Jul-31 15:38 301 6.1
2015-Jul-31 15:28 303 6.1
2015-Jul-31 15:18 304 6.1
2015-Jul-31 15:08 306 6.7
2015-Jul-31 14:58 298 6.7
2015-Jul-31 14:48 336 6.1
2015-Jul-31 14:38 298 6.7
2015-Jul-31 14:28 299 6.7
2015-Jul-31 14:08 300 6.7
2015-Jul-31 13:58 351 7.2
2015-Jul-31 13:48 300 7.2
2015-Jul-31 13:38 301 7.8
2015-Jul-31 13:28 300 7.8
2015-Jul-31 13:18 300 8.3
2015-Jul-31 13:08 352 0 gusting 4 8.3
2015-Jul-31 12:58 297 0 gusting 2 8.9
2015-Jul-31 12:48 343 1 gusting 5 8.9
2015-Jul-31 12:38 308 1 gusting 4 8.9
2015-Jul-31 12:28 310 1 gusting 5 8.9
2015-Jul-31 12:18 277 8.9
2015-Jul-31 12:08 287 9.4
2015-Jul-31 11:58 281 9.4
2015-Jul-31 11:48 279 9.4
2015-Jul-31 11:38 285 9.4
2015-Jul-31 11:28 324 2 gusting 5 9.4
2015-Jul-31 11:18 275 8.9
2015-Jul-31 11:08 279 8.9
2015-Jul-31 10:58 345 0 gusting 1 9.4
2015-Jul-31 10:48 279 9.4
2015-Jul-31 10:38 281 8.9
2015-Jul-31 10:28 278 8.9
2015-Jul-31 10:08 209 8.9
2015-Jul-31 09:58 208 8.9
2015-Jul-31 09:28 206 10.0
2015-Jul-31 09:18 207 8.9
2015-Jul-31 09:08 199 8.9
2015-Jul-31 08:58 198 8.9
2015-Jul-31 08:48 200 0 gusting 1 8.9
2015-Jul-31 08:38 197 8.9
2015-Jul-31 08:28 197 1 gusting 6 8.9
2015-Jul-31 08:08 265 2 gusting 6 8.9
2015-Jul-31 07:48 273 1 gusting 4 8.3
2015-Jul-31 07:38 272 0 gusting 2 8.3
2015-Jul-31 07:28 296 0 gusting 2 8.3
2015-Jul-31 07:18 273 0 gusting 1 8.9
2015-Jul-31 07:08 269 9.4
2015-Jul-31 06:58 274 9.4
2015-Jul-31 06:48 272 0 gusting 1 9.4
2015-Jul-31 06:38 271 9.4
2015-Jul-31 06:28 271 0 gusting 1 9.4
2015-Jul-31 06:18 273 0 gusting 5 9.4
2015-Jul-31 06:08 270 1 gusting 4 9.4
2015-Jul-31 05:58 265 1 gusting 6 9.4
2015-Jul-31 05:38 257 1 gusting 4 9.4
2015-Jul-31 05:28 258 9.4
2015-Jul-31 05:18 256 2 gusting 6 10.0
2015-Jul-31 05:08 244 4 gusting 8 10.6
2015-Jul-31 04:58 245 3 gusting 6 10.6
2015-Jul-31 04:48 312 1 gusting 4 10.6
2015-Jul-31 04:38 264 2 gusting 7 10.6
2015-Jul-31 04:28 290 6 gusting 12 11.1
2015-Jul-31 04:18 280 4 gusting 8 11.7
2015-Jul-31 04:08 273 6 gusting 10 11.7
2015-Jul-31 03:58 311 4 gusting 10 12.2
2015-Jul-31 03:48 321 5 gusting 8 12.2
2015-Jul-31 03:38 267 4 gusting 8 12.2
2015-Jul-31 03:28 252 6 gusting 10 12.8
2015-Jul-31 03:18 248 4 gusting 10 12.8
2015-Jul-31 03:08 253 4 gusting 10 12.2
2015-Jul-31 02:48 252 2 gusting 7 11.1
2015-Jul-31 02:38 242 4 gusting 10 11.1
2015-Jul-31 02:28 264 7 gusting 19 11.7
2015-Jul-31 02:18 327 4 gusting 10 12.8
2015-Jul-31 01:58 323 5 gusting 8 12.2
2015-Jul-31 01:48 202 1 gusting 5 11.7
2015-Jul-31 01:38 195 1 gusting 6 11.7
2015-Jul-31 01:18 172 4 gusting 10 11.1
2015-Jul-31 00:58 190 6 gusting 10 13.3
2015-Jul-31 00:48 218 5 gusting 13 12.2
2015-Jul-31 00:38 202 5 gusting 8 13.9
2015-Jul-31 00:28 272 6 gusting 8 15.0
2015-Jul-31 00:18 327 2 gusting 8 14.4
2015-Jul-31 00:08 349 2 gusting 6 15.0
2015-Jul-30 23:58 328 0 gusting 2 13.9
2015-Jul-30 23:48 351 0 gusting 5 12.2
2015-Jul-30 23:38 330 1 gusting 6 11.7
2015-Jul-30 23:18 257 0 gusting 4 11.7
2015-Jul-30 23:08 252 0 gusting 4 11.7
2015-Jul-30 22:58 245 11.7
2015-Jul-30 22:48 243 0 gusting 2 11.1
2015-Jul-30 22:38 261 0 gusting 5 11.1
2015-Jul-30 22:28 278 1 gusting 5 11.7
2015-Jul-30 22:18 292 0 gusting 1 12.2
2015-Jul-30 22:08 351 11.1
2015-Jul-30 21:58 294 9.4
2015-Jul-30 21:48 292 9.4
2015-Jul-30 21:28 334 0 gusting 6 10.6
2015-Jul-30 21:18 317 2 gusting 6 11.1
2015-Jul-30 21:08 324 2 gusting 5 10.6
2015-Jul-30 20:58 351 1 gusting 5 11.1
2015-Jul-30 20:48 340 1 gusting 4 9.4
2015-Jul-30 20:38 200 1 gusting 2 9.4
2015-Jul-30 20:28 198 8.9
2015-Jul-30 20:08 202 8.3
2015-Jul-30 19:58 200 1 gusting 6 8.3
2015-Jul-30 19:48 159 1 gusting 6 7.8
2015-Jul-30 19:38 314 7.8
2015-Jul-30 19:28 313 7.8
2015-Jul-30 19:18 342 1 gusting 2 7.8
2015-Jul-30 19:08 309 1 gusting 6 7.8
2015-Jul-30 18:58 281 7.8
2015-Jul-30 18:48 278 7.8
2015-Jul-30 18:38 290 1 gusting 5 7.8
2015-Jul-30 18:28 002 3 gusting 5 7.8
2015-Jul-30 17:58 270 0 gusting 2 7.8
2015-Jul-30 17:48 270 7.8
2015-Jul-30 17:38 272 7.8
2015-Jul-30 17:28 274 7.8
2015-Jul-30 17:08 269 7.8
2015-Jul-30 16:58 269 7.8
2015-Jul-30 16:48 268 7.2
2015-Jul-30 16:38 269 7.2
2015-Jul-30 16:28 274 7.2
2015-Jul-30 16:08 271 7.2
2015-Jul-30 15:58 276 7.2
2015-Jul-30 15:48 318 7.2
2015-Jul-30 15:38 271 7.2
2015-Jul-30 15:28 272 7.2
2015-Jul-30 15:08 296 7.2
2015-Jul-30 14:58 308 0 gusting 5 7.2
2015-Jul-30 14:48 269 3 gusting 5 6.7
2015-Jul-30 14:38 233 6.7
2015-Jul-30 14:18 234 6.7
2015-Jul-30 14:08 233 0 gusting 1 6.1
2015-Jul-30 13:58 236 6.1
2015-Jul-30 13:48 240 6.1
2015-Jul-30 13:38 233 6.1
2015-Jul-30 13:28 232 6.1
2015-Jul-30 13:08 297 6.1
2015-Jul-30 12:58 228 6.1
2015-Jul-30 12:48 236 6.1
2015-Jul-30 12:38 235 6.1
2015-Jul-30 12:28 234 6.1
2015-Jul-30 12:18 232 6.7
2015-Jul-30 12:08 233 6.1
2015-Jul-30 11:58 234 6.7
2015-Jul-30 11:48 234 6.1
2015-Jul-30 11:28 236 5.6
2015-Jul-30 11:08 233 5.6
2015-Jul-30 10:58 232 5.6
2015-Jul-30 10:38 235 5.6
2015-Jul-30 10:28 235 5.6
2015-Jul-30 09:58 233 5.0
2015-Jul-30 09:38 236 5.6
2015-Jul-30 09:18 232 0 gusting 1 6.1
2015-Jul-30 09:08 237 6.1
2015-Jul-30 08:58 234 6.1
2015-Jul-30 08:48 236 6.1
2015-Jul-30 08:38 233 5.6
2015-Jul-30 08:18 233 6.1
2015-Jul-30 08:08 235 6.1
2015-Jul-30 07:48 237 6.1
2015-Jul-30 07:38 235 6.1
2015-Jul-30 07:28 238 6.7
2015-Jul-30 07:18 227 0 gusting 2 6.7
2015-Jul-30 07:08 228 7.2
2015-Jul-30 06:48 227 7.2
2015-Jul-30 06:38 228 0 gusting 2 7.8
2015-Jul-30 06:28 227 0 gusting 4 7.8
2015-Jul-30 06:18 230 1 gusting 5 8.3
2015-Jul-30 05:58 231 0 gusting 4 8.3
2015-Jul-30 05:48 231 0 gusting 6 8.9
2015-Jul-30 05:28 210 3 gusting 6 9.4
2015-Jul-30 05:18 221 5 gusting 10 10.0
2015-Jul-30 05:08 269 4 gusting 10 10.0
2015-Jul-30 04:58 223 4 gusting 8 10.0
2015-Jul-30 04:48 216 6 gusting 11 10.6
2015-Jul-30 04:38 180 5 gusting 11 10.6
2015-Jul-30 04:18 207 4 gusting 8 11.1
2015-Jul-30 03:58 218 6 gusting 10 11.7
2015-Jul-30 03:48 247 5 gusting 8 11.7
2015-Jul-30 03:38 198 6 gusting 13 11.7
2015-Jul-30 03:28 193 6 gusting 11 12.2
2015-Jul-30 03:18 225 6 gusting 11 12.2
2015-Jul-30 03:08 191 3 gusting 7 12.2
2015-Jul-30 02:58 211 6 gusting 10 12.2
2015-Jul-30 02:48 168 5 gusting 10 12.2
2015-Jul-30 02:38 230 6 gusting 8 12.8
2015-Jul-30 02:28 247 5 gusting 12 12.2
2015-Jul-30 02:18 209 5 gusting 8 12.8
2015-Jul-30 02:08 177 5 gusting 10 12.8
2015-Jul-30 01:58 256 4 gusting 8 12.8
2015-Jul-30 01:48 230 5 gusting 10 12.8
2015-Jul-30 01:38 246 4 gusting 10 12.8
2015-Jul-30 01:18 207 6 gusting 10 13.3
2015-Jul-30 01:08 232 5 gusting 12 13.3
2015-Jul-30 00:58 183 4 gusting 14 13.9
2015-Jul-30 00:48 213 4 gusting 11 13.9
2015-Jul-30 00:38 186 7 gusting 10 13.3
2015-Jul-30 00:28 168 5 gusting 13 13.3
2015-Jul-30 00:18 225 6 gusting 12 13.9
2015-Jul-30 00:08 230 5 gusting 12 13.9
2015-Jul-29 23:48 191 6 gusting 13 13.3
2015-Jul-29 23:38 206 8 gusting 12 13.3
2015-Jul-29 23:28 169 5 gusting 11 13.3
2015-Jul-29 23:18 152 5 gusting 11 12.8